User: anonymous   Login
Location: Emporia
(38.4040°N, 96.1810°W)
Time: 18:34:52
(UTC-06:00)
Language:

STARS - Orbit

View from above orbital plane
View from above orbital plane
View from above satellite
View from above satellite

Ground track
Ground track

The orbit data is extracted from the following two-line orbital elements,

1 33498U 09002G   18020.70078167  .00000217  00000-0  37179-4 0  9996
2 33498  98.3288 207.1826 0011381  20.4187 110.0446 14.78735262484040
Epoch (UTC): 20 January 2018 16:49:07
Eccentricity: 0.0011381
inclination: 98.3288°
perigee height: 625 km
apogee height: 641 km
right ascension of ascending node: 207.1826°
argument of perigee: 20.4187°
revolutions per day: 14.78735262
mean anomaly at epoch: 110.0446°
orbit number at epoch: 48404

The dashed part of the orbit path shows where the satellite is in the earth's shadow,  

DLR